Volver al catálogo

CZ-4 DEB

ActivoPO
NORAD 35381·DEBRIS·🇨🇳 China

Lanzado Oct 21, 2003 desde Taiyuan Satellite Launch Center

Loading…

Próximos Pases (próximas 24 horas)

TLE

ActualizadoSource: Space-Track

Época: Sep 13, 2026, 02:42 UTC

1 35381U 03049H   26256.11252252  .00089844  00000-0  16057-2 0  9991
2 35381  98.5962 133.6827 0016186 223.1834 136.8145 15.49557704212905

Sigue CZ-4 DEB en tiempo real con AllMySat

Download on the App Store